Location: Saluda
(35.2377°N, 82.3468°W)
Time: 03:10:07
(UTC+00:00)

Vanguard 2 Rocket - Pass Details

Date: 11 October 2022
Orbit: 555 x 3321 km, 32.9° (Epoch: 05 December)

Event Time Altitude Azimuth Distance (km) Brightness Sun altitude
Rises 22:57:40 0° 213° (SSW) 6,753 12.0 -0.5°
Reaches altitude 10° 23:02:22 10° 206° (SSW) 5,976 11.6 -1.4°
Maximum altitude 23:19:49 40° 145° (SE) 4,233 10.1 -5.0°
Drops below altitude 10° 23:35:58 10° 84° (E) 5,603 10.2 -8.3°
Enters shadow 23:36:24 - 83° (E) 5,674 10.2 -8.4°
Sets 23:40:07 0° 77° (ENE) 6,320 - -9.1°
